KIND Airport Diagram

We have created a template for each of the higher traffic airports in the vZID airspace. They include KCMH, KCRW, KCVG, KDAY, KIND, KLEX and KSDF. You wil find usefull information including the airport diagram, weather, and specific airport procedures.

KIND Weather

[Source: ADDS]
METAR
KIND 181654Z 05006KT 10SM SCT045 SCT250 28/15 A3012 RMK AO2 SLP194 T02780150 =
KIND 181723Z 1818/1924 10007KT P6SM FEW045 SCT250 FM190800 VRB04KT P6SM FEW250 FM191600 14006KT P6SM FEW045
TAF
KIND 181723Z 1818/1924 10007KT P6SM FEW045 SCT250 FM190800 VRB04KT P6SM FEW250 FM191600 14006KT P6SM FEW045 =

KIND Operations

 Calm Wind Configuration is runways 23L/R, up to and including 10kts.

Runway 23L typically departs South and East, Runway 23R typically departs North and West.

FedEx pilots should expect runway 23L or 5R.

Contraflow (noise abatement) procedures from 2200L to 0600L, landing Runway 5R, departing Runway 23R, weather permitted.

New Scenery is available at FlightSim.com and Blueprint Simulations. On initial contact, arriving aircraft should notify the the controller if their scenery has the Midfield Terminal.

FBOs: Signature is near taxiway D and Millionaire is near taxiway A, both are North of taxiway M.

 

JSN Epic template designed by JoomlaShine.com